OPS 4682 DEB, 38407

Orbit data source: Space-Track

OPS 4682 DEB, 38407 is space debris in LEO originally from a launch on Sat, 03 Apr 1965 UTC launched from the Air Force Western Test Range (AFWTR). Debris objects in space refer to the collection of defunct objects orbiting the Earth. Examples of debris include non-operational satellites, rocket bodies, and fragments generated from explosions, collisions, or faulty payload assembly.

Loading next visibility...
Identifier
38407, 1965-027DL
Orbit
LEO
Country
Flag of USUS
Related business
Manufacturer
Unknown
Mission
Spacecraft
Bus & Motor
Unknown
Mass
Unknown
Launch date (UTC)
1965-04-03 (61 years ago)
Launch vehicle
Unknown
Launch site
Air Force Western Test Range (AFWTR)
Object type
Payload
Rocket body
Debris
Shape & HBR
Unknown shape, 0.1 m
Radar Cross Section
Medium (>0.1 m² and <1 m²)

Expand to show TLE details & history
Last TLE update: 4 days ago

TLE from 4 days ago
0 OPS 4682 DEB
1 38407U 65027DL  26146.36967945  .00000997  00000-0  34303-2 0  9990
2 38407  90.2411   6.9672 0027653 186.1569 173.9215 12.96920734298448
Epoch: 2026-05-26T08:52Z
TLE epoch observation values (Epoch: 2026-05-26T08:52:20.304Z)
Latitude
-0.00006°
Longitude
-10.0615°
Altitude
1,298.101 km
Speed
7.197 km/s
True Right ascension
00h 27m 52s
True Declination
0° 00' 00"
Sunlit
Object was in daylight at epoch
Visualization orbit readout
Latitude
Unknown
Longitude
Unknown
Altitude
Unknown
Speed
Unknown
Apparent Right ascension
Unknown
Apparent Declination
Unknown
Sunlit
N/A
Visualization observer readout
Local Sidereal Time
22:05:57
Azimuth
Unknown
Elevation
Unknown
Doppler factor
Unknown
Orbital elements
Apogee altitude
1,292.46 km
Perigee altitude
1,250.154 km
Semi-major axis
7,649.444 km
Eccentricity
0.00277
Inclination
90.2411°
RAAN
6.9672°
Arg. of periapsis
186.1569°
True anomaly
173.95494°
Mean anomaly
173.9215°
Eccentric anomaly
173.93823°
Mean motion
3.24413 °/min
Orbital period
110.97 mins
BSTAR
0.0034303
Loading maneuver chart data...
Computing Atmospheric mass density...
Loading historical data...
Loading historical data...
Loading historical data...
Loading historical data...
Loading historical data...
Loading historical data...
Loading historical data...

Documentation

Showing up to 5 results
|